| time (UTC) | temp C | wind direction | speed KPH | gust KPH | rain 1hr cm | rain 24hr cm | rain mn cm | humidity % | barometer mb |
| 20260905081505 | 14 | 318 | 0.0 | 0.0 | 0.00 | 0.00 | 0.56 | 92 | 999.5 |
| 20260905080002 | 13 | 360 | 0.0 | 0.0 | 0.00 | 0.00 | 0.56 | 92 | 999.3 |
| 20260905074601 | 13 | 214 | 0.0 | 0.0 | 0.00 | 0.00 | 0.56 | 93 | 999.1 |
| 20260905073103 | 13 | 273 | 0.0 | 0.0 | 0.00 | 0.00 | 0.56 | 93 | 999.0 |
| 20260905071557 | 13 | 233 | 0.0 | 0.0 | 0.00 | 0.00 | 0.56 | 93 | 998.8 |
| 20260905070100 | 13 | 235 | 0.0 | 0.0 | 0.00 | 0.00 | 0.56 | 94 | 998.8 |
| 20260905064554 | 13 | 224 | 0.0 | 0.0 | 0.00 | 0.00 | 0.56 | 93 | 998.7 |
| 20260905063057 | 12 | 231 | 0.0 | 0.0 | 0.00 | 0.00 | 0.56 | 93 | 998.5 |
| 20260905061618 | 13 | 208 | 0.0 | 0.0 | 0.00 | 0.00 | 0.56 | 94 | 998.3 |
| 20260905060059 | 12 | 209 | 0.0 | 0.0 | 0.00 | 0.00 | 0.56 | 94 | 998.1 |
| 20260905054550 | 12 | 227 | 0.0 | 0.0 | 0.00 | 0.00 | 0.56 | 94 | 998.0 |
| 20260905053054 | 11 | 248 | 0.0 | 0.0 | 0.00 | 0.00 | 0.56 | 94 | 997.9 |
| 20260905051551 | 11 | 192 | 0.0 | 0.0 | 0.00 | 0.00 | 0.56 | 94 | 997.8 |
| 20260905050051 | 11 | 192 | 0.0 | 0.0 | 0.00 | 0.00 | 0.56 | 93 | 997.8 |
| 20260905044551 | 10 | 192 | 0.0 | 0.0 | 0.00 | 0.00 | 0.56 | 93 | 997.7 |
| 20260905043047 | 10 | 190 | 0.0 | 0.0 | 0.00 | 0.00 | 0.56 | 93 | 997.7 |
| 20260905041552 | 11 | 192 | 0.0 | 0.0 | 0.00 | 0.00 | 0.56 | 93 | 997.8 |
| 20260905040044 | 11 | 192 | 0.0 | 0.0 | 0.00 | 0.00 | 0.56 | 93 | 997.8 |
| 20260905034552 | 11 | 192 | 0.0 | 0.0 | 0.00 | 0.00 | 0.56 | 93 | 997.7 |
| 20260905033043 | 11 | 193 | 0.0 | 0.0 | 0.00 | 0.00 | 0.56 | 93 | 997.7 |
| 20260905031541 | 11 | 178 | 0.0 | 0.0 | 0.00 | 0.00 | 0.51 | 93 | 997.5 |
| 20260905030041 | 11 | 215 | 0.0 | 0.0 | 0.00 | 0.00 | 0.51 | 93 | 997.4 |
| 20260905024540 | 11 | 215 | 0.0 | 0.0 | 0.00 | 0.00 | 0.51 | 93 | 997.4 |
| 20260905023041 | 11 | 215 | 0.0 | 0.0 | 0.00 | 0.00 | 0.51 | 93 | 997.5 |
| 20260905021541 | 11 | 215 | 0.0 | 0.0 | 0.00 | 0.00 | 0.51 | 93 | 997.3 |
| 20260905020041 | 11 | 215 | 0.0 | 0.0 | 0.00 | 0.00 | 0.51 | 93 | 997.1 |
| 20260905014538 | 11 | 215 | 0.0 | 0.0 | 0.00 | 0.00 | 0.46 | 93 | 996.9 |
| 20260905013036 | 11 | 216 | 0.0 | 0.0 | 0.00 | 0.00 | 0.43 | 93 | 996.6 |
| 20260905011542 | 12 | 194 | 0.0 | 0.0 | 0.00 | 0.00 | 0.43 | 92 | 996.9 |
| 20260905010034 | 12 | 173 | 0.0 | 0.0 | 0.00 | 0.00 | 0.41 | 92 | 996.5 |
| 20260905004538 | 12 | 211 | 0.0 | 0.0 | 0.00 | 0.00 | 0.36 | 92 | 996.4 |
| 20260905003032 | 12 | 246 | 0.0 | 0.0 | 0.00 | 0.00 | 0.36 | 92 | 996.4 |
| 20260905001545 | 12 | 246 | 0.0 | 0.0 | 0.00 | 0.00 | 0.36 | 92 | 996.4 |
| 20260905000029 | 12 | 247 | 0.0 | 0.0 | 0.00 | 0.00 | 0.36 | 92 | 996.3 |
| 20260904234534 | 12 | 269 | 0.0 | 0.0 | 0.00 | 0.00 | 0.33 | 92 | 996.3 |
| 20260904233040 | 12 | 360 | 0.0 | 0.0 | 0.00 | 0.00 | 0.25 | 92 | 996.1 |
| 20260904231538 | 12 | 269 | 0.0 | 0.0 | 0.00 | 0.00 | 0.23 | 92 | 996.2 |
| 20260904230027 | 12 | 269 | 0.0 | 0.0 | 0.00 | 0.00 | 0.23 | 92 | 995.9 |
| 20260904224527 | 12 | 221 | 0.0 | 0.0 | 0.00 | 0.00 | 0.20 | 92 | 996.1 |
| 20260904223029 | 12 | 227 | 0.0 | 0.0 | 0.00 | 0.00 | 0.18 | 92 | 995.8 |
| 20260904221527 | 12 | 228 | 0.0 | 0.0 | 0.00 | 0.00 | 0.13 | 92 | 995.8 |
| 20260904220026 | 12 | 227 | 0.0 | 0.0 | 0.00 | 0.00 | 0.00 | 91 | 996.0 |
| 20260904214524 | 12 | 229 | 0.0 | 0.0 | 0.00 | 0.00 | 0.71 | 91 | 996.1 |
| 20260904213026 | 12 | 231 | 0.0 | 0.0 | 0.00 | 0.00 | 0.56 | 91 | 996.1 |
| 20260904211521 | 11 | 248 | 0.0 | 0.0 | 0.00 | 0.00 | 0.43 | 90 | 996.0 |
| 20260904210021 | 11 | 248 | 0.0 | 0.0 | 0.00 | 0.00 | 0.43 | 90 | 995.7 |
| 20260904204522 | 11 | 249 | 0.0 | 0.0 | 0.00 | 0.00 | 0.43 | 89 | 995.7 |
| 20260904203021 | 11 | 249 | 0.0 | 0.0 | 0.00 | 0.00 | 0.43 | 89 | 995.7 |
| 20260904201520 | 11 | 250 | 0.0 | 0.0 | 0.00 | 0.00 | 0.43 | 88 | 995.7 |
| 20260904200019 | 12 | 249 | 0.0 | 0.0 | 0.00 | 0.00 | 0.43 | 88 | 995.9 |
| 20260904194517 | 12 | 249 | 0.0 | 0.0 | 0.00 | 0.00 | 0.43 | 87 | 995.9 |
| 20260904193017 | 12 | 249 | 0.0 | 0.0 | 0.00 | 0.00 | 0.43 | 87 | 995.9 |
| 20260904191515 | 12 | 249 | 0.0 | 0.0 | 0.00 | 0.00 | 0.43 | 86 | 996.1 |
| 20260904190012 | 13 | 248 | 0.0 | 0.0 | 0.00 | 0.00 | 0.43 | 85 | 996.1 |
| 20260904184511 | 13 | 248 | 0.0 | 0.0 | 0.00 | 0.00 | 0.43 | 84 | 996.0 |
| 20260904183021 | 13 | 360 | 0.0 | 0.0 | 0.00 | 0.00 | 0.43 | 84 | 996.1 |
| 20260904181523 | 13 | 227 | 0.0 | 0.0 | 0.00 | 0.00 | 0.43 | 83 | 996.1 |
| 20260904180010 | 13 | 205 | 0.0 | 0.0 | 0.00 | 0.00 | 0.43 | 82 | 996.1 |
| 20260904174510 | 14 | 231 | 0.0 | 0.0 | 0.00 | 0.00 | 0.43 | 81 | 996.1 |
| 20260904173023 | 14 | 225 | 0.0 | 0.0 | 0.00 | 0.00 | 0.43 | 79 | 996.0 |
| 20260904171512 | 15 | 244 | 0.0 | 0.0 | 0.00 | 0.00 | 0.43 | 78 | 995.8 |
| 20260904170010 | 15 | 360 | 0.0 | 0.0 | 0.00 | 0.00 | 0.43 | 76 | 995.7 |
| 20260904164508 | 15 | 265 | 0.0 | 0.0 | 0.00 | 0.00 | 0.43 | 75 | 995.7 |
| 20260904163012 | 16 | 138 | 0.0 | 0.0 | 0.00 | 0.00 | 0.43 | 73 | 995.9 |
| 20260904161512 | 17 | 302 | 0.0 | 0.0 | 0.00 | 0.00 | 0.43 | 69 | 995.9 |
| 20260904160011 | 17 | 253 | 0.0 | 0.0 | 0.00 | 0.00 | 0.43 | 72 | 995.9 |
| 20260904154510 | 17 | 325 | 0.0 | 0.0 | 0.00 | 0.00 | 0.43 | 73 | 995.9 |
| 20260904153011 | 17 | 187 | 0.0 | 0.0 | 0.00 | 0.00 | 0.43 | 71 | 996.0 |
| 20260904151507 | 17 | 298 | 0.0 | 0.0 | 0.00 | 0.00 | 0.43 | 70 | 996.0 |
| 20260904150006 | 17 | 310 | 0.0 | 0.0 | 0.00 | 0.00 | 0.43 | 71 | 996.0 |
| 20260904144505 | 17 | 237 | 0.0 | 0.0 | 0.00 | 0.00 | 0.43 | 68 | 996.0 |
| 20260904143008 | 17 | 204 | 0.0 | 0.0 | 0.00 | 0.00 | 0.43 | 69 | 996.0 |
| 20260904141506 | 17 | 287 | 0.0 | 0.0 | 0.00 | 0.00 | 0.43 | 70 | 996.2 |
| 20260904140005 | 17 | 281 | 0.0 | 0.0 | 0.00 | 0.00 | 0.43 | 73 | 996.3 |
| 20260904134505 | 16 | 360 | 0.0 | 0.0 | 0.00 | 0.00 | 0.43 | 73 | 996.3 |
| 20260904133003 | 16 | 360 | 0.0 | 0.0 | 0.00 | 0.00 | 0.43 | 75 | 996.5 |
| 20260904131502 | 16 | 219 | 0.0 | 0.0 | 0.00 | 0.00 | 0.43 | 75 | 996.6 |
| 20260904130003 | 17 | 360 | 0.0 | 0.0 | 0.00 | 0.00 | 0.43 | 75 | 996.8 |
| 20260904124501 | 17 | 228 | 0.0 | 0.0 | 0.00 | 0.00 | 0.43 | 74 | 996.7 |
| 20260904123002 | 17 | 169 | 0.0 | 0.0 | 0.00 | 0.00 | 0.43 | 74 | 996.8 |
| 20260904121501 | 17 | 261 | 0.0 | 0.0 | 0.00 | 0.00 | 0.43 | 74 | 996.8 |
| 20260904120106 | 17 | 244 | 0.0 | 0.0 | 0.00 | 0.00 | 0.43 | 74 | 997.2 |
| 20260904114558 | 17 | 248 | 0.0 | 0.0 | 0.00 | 0.00 | 0.43 | 73 | 997.3 |
| 20260904113058 | 16 | 360 | 0.0 | 0.0 | 0.00 | 0.00 | 0.43 | 74 | 997.3 |
| 20260904111558 | 16 | 267 | 0.0 | 0.0 | 0.00 | 0.00 | 0.43 | 73 | 997.3 |
| 20260904110057 | 17 | 253 | 0.0 | 0.0 | 0.00 | 0.00 | 0.43 | 74 | 997.2 |
| 20260904104553 | 16 | 360 | 0.0 | 0.0 | 0.00 | 0.00 | 0.43 | 78 | 997.4 |
| 20260904103051 | 16 | 224 | 0.0 | 0.0 | 0.00 | 0.00 | 0.43 | 80 | 997.5 |
| 20260904101551 | 15 | 244 | 0.0 | 0.0 | 0.00 | 0.00 | 0.43 | 79 | 997.6 |
| 20260904100053 | 15 | 210 | 0.0 | 0.0 | 0.00 | 0.00 | 0.43 | 79 | 997.7 |
| 20260904094548 | 15 | 298 | 0.0 | 0.0 | 0.00 | 0.00 | 0.43 | 81 | 997.9 |
| 20260904093053 | 15 | 213 | 0.0 | 0.0 | 0.00 | 0.00 | 0.43 | 80 | 997.9 |
| 20260904091553 | 15 | 246 | 0.0 | 0.0 | 0.00 | 0.00 | 0.43 | 82 | 998.0 |
| 20260904090045 | 15 | 253 | 0.0 | 0.0 | 0.00 | 0.00 | 0.43 | 83 | 998.0 |
| 20260904084545 | 15 | 230 | 0.0 | 0.0 | 0.00 | 0.00 | 0.43 | 84 | 998.1 |
| 20260904083045 | 15 | 360 | 0.0 | 0.0 | 0.00 | 0.00 | 0.43 | 86 | 998.1 |